STARLINK-35963

Last updated on Wed Dec 31 2025 00:02:06 GMT+0000 (Coordinated Universal Time)

1 66585U 25268AE 25364.58335648 .00058545 00000+0 21226-2 0 9996 2 66585 43.0012 17.6941 0001089 299.3599 171.7982 15.27542555 6028
UTC large
Height (km)
Speed (km/s)
/
Latitude / Longitude
Inclination (degrees)
Orbital Period (minutes)
Azimuth
Elevation
Range (km)
Doppler Factor

Next 0 passes for location: London (51.5072 / 0.1276)

Sorry there are no passes over London.